Williamsburg, VA

10:20 PM EDT on March 22, 2017 (GMT -0400)
Williamsburg-jamestown

Weather History for KJGG - March, 2014

Change the Weather History Date:

Wednesday, March 12, 2014

  Actual Average Record
Temperature  
Mean Temperature 60 °F -  
Max Temperature 71 °F 60 °F 88 °F (1990)
Min Temperature 48 °F 35 °F 18 °F (1960)
Degree Days  
Heating Degree Days 6    
Growing Degree Days 10 (Base 50)    
Moisture  
Dew Point 50 °F    
Average Humidity 67    
Maximum Humidity 88    
Minimum Humidity 47    
Precipitation  
Precipitation 0.13 in - - ()
Sea Level Pressure  
Sea Level Pressure 29.42 in    
Wind  
Wind Speed 8 mph (SSW)    
Max Wind Speed 30 mph    
Max Gust Speed 41 mph    
Visibility 10 miles    
Events      
Averages and records for this station are not official NWS values.
T = Trace of Precipitation, MM = Missing Value Source: NWS Daily Summary

Daily Weather History Graph

Daily Weather History Graph

Search for Another Location

Airport or City:

Trip Planner

Search our weather history database for the weather conditions in past years. The results will help you decide how hot, cold, wet, or windy it might be!

Date:

Astronomy

Mar. 12, 2014 Rise Set
Actual Time 7:22 AM EDT 7:11 PM EDT
Civil Twilight 6:56 AM EDT 7:37 PM EDT
Nautical Twilight 6:26 AM EDT 8:07 PM EDT
Astronomical Twilight 5:55 AM EDT 8:38 PM EDT
Moon 3:43 PM EDT (3/12) 4:48 AM EDT (3/12)
Length of Visible Light 12h 41m
Length of Day
11h 49m
Waxing Gibbous, 85% of the Moon is Illuminated
Mar 12
Waxing Gibbous
Mar 16
Full
Mar 23
Last Quarter
Mar 30
New
Apr 7
First Quarter

Hourly Weather History & Observations

Time (EDT) Temp. Dew Point Humidity Pressure Visibility Wind Dir Wind Speed Gust Speed Precip Events Conditions
12:15 AM 50.0 °F 42.8 °F 76% 29.67 in 10.0 mi SSE 4.6 mph - N/A   Clear
12:35 AM 51.8 °F 42.8 °F 71% 29.68 in 10.0 mi SSE 5.8 mph - N/A   Clear
12:55 AM 51.8 °F 42.8 °F 71% 29.67 in 10.0 mi SSE 5.8 mph - N/A   Clear
1:15 AM 51.8 °F 42.8 °F 71% 29.66 in 10.0 mi SE 5.8 mph - N/A   Clear
1:35 AM 51.8 °F 42.8 °F 71% 29.66 in 10.0 mi SSE 4.6 mph - N/A   Clear
1:55 AM 50.0 °F 42.8 °F 76% 29.66 in 10.0 mi South 5.8 mph - N/A   Clear
2:15 AM 50.0 °F 42.8 °F 76% 29.65 in 10.0 mi South 4.6 mph - N/A   Clear
2:35 AM 50.0 °F 44.6 °F 82% 29.63 in 10.0 mi South 4.6 mph - N/A   Clear
2:55 AM 48.2 °F 42.8 °F 82% 29.63 in 10.0 mi South 3.5 mph - N/A   Clear
3:15 AM 48.2 °F 44.6 °F 87% 29.62 in 10.0 mi SSE 4.6 mph - N/A   Clear
3:35 AM 48.2 °F 44.6 °F 87% 29.60 in 10.0 mi SSE 6.9 mph - N/A   Clear
3:55 AM 48.2 °F 44.6 °F 87% 29.59 in 10.0 mi SSE 8.1 mph - N/A   Clear
4:15 AM 51.8 °F 44.6 °F 76% 29.58 in 10.0 mi SSE 9.2 mph - N/A   Clear
4:35 AM 55.4 °F 46.4 °F 72% 29.57 in 10.0 mi SSE 6.9 mph - N/A   Clear
4:55 AM 53.6 °F 46.4 °F 77% 29.57 in 10.0 mi SSE 5.8 mph - N/A   Clear
5:15 AM 53.6 °F 46.4 °F 77% 29.57 in 10.0 mi SSE 5.8 mph - N/A   Clear
5:35 AM 53.6 °F 46.4 °F 77% 29.56 in 10.0 mi SSE 4.6 mph - N/A   Clear
5:55 AM 53.6 °F 46.4 °F 77% 29.56 in 10.0 mi SSE 5.8 mph - N/A   Clear
6:15 AM 53.6 °F 46.4 °F 77% 29.55 in 10.0 mi South 5.8 mph - N/A   Clear
6:35 AM 53.6 °F 46.4 °F 77% 29.55 in 10.0 mi South 6.9 mph - N/A   Clear
6:55 AM 55.4 °F 46.4 °F 72% 29.55 in 10.0 mi South 4.6 mph - N/A   Clear
7:15 AM 55.4 °F 46.4 °F 72% 29.54 in 10.0 mi South 5.8 mph - N/A   Scattered Clouds
7:35 AM 57.2 °F 48.2 °F 72% 29.53 in 10.0 mi South 5.8 mph - N/A   Scattered Clouds
7:55 AM 57.2 °F 48.2 °F 72% 29.54 in 10.0 mi South 4.6 mph - N/A   Unknown
8:15 AM 57.2 °F 48.2 °F 72% 29.53 in 10.0 mi SSE 3.5 mph - N/A   Unknown
8:35 AM 59.0 °F 48.2 °F 67% 29.53 in 10.0 mi SSW 6.9 mph - N/A   Unknown
8:55 AM 60.8 °F 50.0 °F 68% 29.52 in 10.0 mi SSW 5.8 mph - N/A   Unknown
9:15 AM 62.6 °F 50.0 °F 63% 29.52 in 10.0 mi SSW 6.9 mph - N/A   Clear
9:35 AM 62.6 °F 51.8 °F 68% 29.51 in 10.0 mi SSW 8.1 mph - N/A   Clear
9:55 AM 62.6 °F 51.8 °F 68% 29.51 in 10.0 mi SSW 8.1 mph - N/A   Unknown
10:15 AM 64.4 °F 51.8 °F 64% 29.49 in 10.0 mi SSW 9.2 mph 16.1 mph N/A   Clear
10:35 AM 66.2 °F 53.6 °F 64% 29.50 in 10.0 mi SW 9.2 mph 17.3 mph N/A   Clear
10:55 AM 69.8 °F 53.6 °F 56% 29.48 in 10.0 mi SW 13.8 mph 21.9 mph N/A   Clear
11:15 AM 71.6 °F 53.6 °F 53% 29.46 in 10.0 mi SW 5.8 mph 17.3 mph N/A   Clear
11:35 AM 71.6 °F 53.6 °F 53% 29.45 in 10.0 mi SW 10.4 mph 20.7 mph N/A   Mostly Cloudy
11:55 AM 71.6 °F 53.6 °F 53% 29.44 in 10.0 mi SW 11.5 mph 23.0 mph N/A   Mostly Cloudy
12:15 PM 71.6 °F 53.6 °F 53% 29.42 in 10.0 mi WSW 10.4 mph 18.4 mph N/A   Scattered Clouds
12:35 PM 71.6 °F 53.6 °F 53% 29.40 in 10.0 mi WSW 12.7 mph 18.4 mph N/A   Scattered Clouds
12:55 PM 71.6 °F 53.6 °F 53% 29.39 in 10.0 mi SW 12.7 mph 21.9 mph N/A   Mostly Cloudy
1:15 PM 69.8 °F 53.6 °F 56% 29.37 in 10.0 mi SSW 9.2 mph 18.4 mph N/A   Overcast
1:35 PM 69.8 °F 53.6 °F 56% 29.35 in 10.0 mi SSW 8.1 mph - N/A   Overcast
1:55 PM 68.0 °F 55.4 °F 64% 29.34 in 7.0 mi SSW 9.2 mph 16.1 mph N/A   Mostly Cloudy
2:15 PM 66.2 °F 55.4 °F 68% 29.32 in 10.0 mi South 8.1 mph - N/A   Scattered Clouds
2:35 PM 69.8 °F 55.4 °F 60% 29.29 in 10.0 mi SSW 11.5 mph 18.4 mph N/A   Scattered Clouds
2:55 PM 69.8 °F 55.4 °F 60% 29.27 in 10.0 mi SSW 11.5 mph 20.7 mph N/A   Scattered Clouds
3:15 PM 71.6 °F 55.4 °F 57% 29.26 in 10.0 mi SSW 16.1 mph 21.9 mph N/A   Mostly Cloudy
3:35 PM 69.8 °F 55.4 °F 60% 29.24 in 10.0 mi SSW 11.5 mph 21.9 mph N/A   Mostly Cloudy
3:55 PM 69.8 °F 55.4 °F 60% 29.22 in 10.0 mi SW 9.2 mph 18.4 mph N/A   Scattered Clouds
4:15 PM 71.6 °F 57.2 °F 60% 29.22 in 10.0 mi SW 12.7 mph 26.5 mph N/A   Scattered Clouds
4:35 PM 71.6 °F 57.2 °F 60% 29.20 in 10.0 mi SW 8.1 mph 24.2 mph N/A   Mostly Cloudy
4:55 PM 69.8 °F 57.2 °F 64% 29.20 in 10.0 mi SW 11.5 mph 26.5 mph N/A   Overcast
5:15 PM 69.8 °F 57.2 °F 64% 29.19 in 10.0 mi WSW 8.1 mph 21.9 mph N/A   Overcast
5:35 PM 69.8 °F 57.2 °F 64% 29.18 in 10.0 mi SW 11.5 mph 24.2 mph N/A   Overcast
5:55 PM 69.8 °F 57.2 °F 64% 29.18 in 10.0 mi SW 11.5 mph 19.6 mph N/A   Overcast
6:15 PM 69.8 °F 57.2 °F 64% 29.17 in 10.0 mi SW 10.4 mph 23.0 mph N/A   Overcast
6:35 PM 68.0 °F 57.2 °F 68% 29.17 in 10.0 mi SW 8.1 mph 20.7 mph N/A   Mostly Cloudy
6:55 PM 68.0 °F 57.2 °F 68% 29.18 in 10.0 mi SW 9.2 mph 20.7 mph N/A   Overcast
7:15 PM 68.0 °F 57.2 °F 68% 29.19 in 10.0 mi SW 11.5 mph 18.4 mph N/A   Overcast
7:35 PM 68.0 °F 57.2 °F 68% 29.20 in 10.0 mi WSW 13.8 mph 18.4 mph N/A   Unknown
7:55 PM 66.2 °F 57.2 °F 73% 29.21 in 7.0 mi WSW 12.7 mph 20.7 mph N/A   Unknown
8:15 PM 64.4 °F 59.0 °F 83% 29.22 in 2.5 mi West 15.0 mph 23.0 mph 0.07 in   Overcast
8:35 PM 62.6 °F 59.0 °F 88% 29.22 in 4.0 mi West 8.1 mph - 0.09 in   Unknown
8:55 PM 62.6 °F 59.0 °F 88% 29.24 in 5.0 mi WSW 15.0 mph 25.3 mph 0.12 in   Unknown
9:15 PM 62.6 °F 57.2 °F 82% 29.25 in 10.0 mi West 16.1 mph 21.9 mph 0.01 in   Unknown
9:35 PM 60.8 °F 53.6 °F 77% 29.28 in 10.0 mi WNW 20.7 mph 35.7 mph 0.01 in   Unknown
9:55 PM 57.2 °F 42.8 °F 59% 29.31 in 10.0 mi WNW 29.9 mph 40.3 mph 0.01 in   Scattered Clouds
10:15 PM 55.4 °F 39.2 °F 54% 29.34 in 10.0 mi WNW 25.3 mph 41.4 mph N/A   Scattered Clouds
10:35 PM 53.6 °F 37.4 °F 54% 29.36 in 10.0 mi NW 28.8 mph 38.0 mph N/A   Clear
10:55 PM 53.6 °F 35.6 °F 51% 29.37 in 10.0 mi WNW 24.2 mph 29.9 mph N/A   Unknown
11:15 PM 51.8 °F 33.8 °F 50% 29.40 in 10.0 mi NW 19.6 mph 33.4 mph N/A   Unknown
11:35 PM 50.0 °F 30.2 °F 47% 29.42 in 10.0 mi NNW 21.9 mph 32.2 mph N/A   Unknown
11:55 PM 48.2 °F 30.2 °F 50% 29.43 in 10.0 mi NW 18.4 mph 29.9 mph N/A   Unknown